{"data":{"norad_id":57174,"epoch":"2026-05-25T04:27:41.433408Z","epoch_age_seconds":69270,"freshness":"FRESH","line1":"1 57174U 23091J   26145.18589622  .00003050  00000+0  17260-3 0  9994","line2":"2 57174  97.5070 198.6115 0012225 221.7721 138.2578 15.13743214160157","mean_motion":15.13743214,"eccentricity":0.0012225,"inclination_deg":97.507,"raan_deg":198.6115,"arg_perigee_deg":221.7721,"mean_anomaly_deg":138.2578,"bstar":0.0001726,"rev_number":16015,"period_min":95.128419845719,"perigee_km":516.35785796138,"apogee_km":533.2355308442,"semimajor_km":6902.9336944028,"source":"CELESTRAK","updated_at":"2026-05-25T13:37:59.906243Z"}}